Time,TemperatureF,DewpointF,PressureIn,WindDirection,WindDirectionDegrees,WindSpeedMPH,WindSpeedGustMPH,Humidity,HourlyPrecipIn,Conditions,Clouds,dailyrainin,SoftwareType,DateUTC
2013-03-07 00:12:00,44.3,16.0,29.91,West,267,3.0,4.0,32,0.00,,,0.00,weatherlink.com 1.10,2013-03-07 07:12:00,
2013-03-07 00:27:00,44.3,14.0,29.91,West,267,1.0,4.0,29,0.00,,,0.00,weatherlink.com 1.10,2013-03-07 07:27:00,
2013-03-07 00:42:00,44.6,18.0,29.91,West,269,3.0,4.0,35,0.00,,,0.00,weatherlink.com 1.10,2013-03-07 07:42:00,
2013-03-07 00:57:00,43.5,20.0,29.92,NE,49,3.0,6.0,39,0.00,,,0.00,weatherlink.com 1.10,2013-03-07 07:57:00,
2013-03-07 01:12:00,42.1,19.0,29.92,NE,46,3.0,5.0,40,0.00,,,0.00,weatherlink.com 1.10,2013-03-07 08:12:00,
2013-03-07 01:27:00,41.5,19.0,29.93,NNE,15,5.0,7.0,41,0.00,,,0.00,weatherlink.com 1.10,2013-03-07 08:27:00,
2013-03-07 01:42:00,40.0,19.0,29.93,NNE,19,0.0,6.0,43,0.00,,,0.00,weatherlink.com 1.10,2013-03-07 08:42:00,
2013-03-07 01:57:00,39.2,18.0,29.93,NNE,19,1.0,3.0,43,0.00,,,0.00,weatherlink.com 1.10,2013-03-07 08:57:00,
2013-03-07 02:12:00,38.1,18.0,29.92,NNE,17,2.0,5.0,45,0.00,,,0.00,weatherlink.com 1.10,2013-03-07 09:12:00,
2013-03-07 02:27:00,38.8,18.0,29.92,NNE,16,4.0,6.0,44,0.00,,,0.00,weatherlink.com 1.10,2013-03-07 09:27:00,
2013-03-07 02:42:00,38.5,18.0,29.92,NNE,28,5.0,6.0,44,0.00,,,0.00,weatherlink.com 1.10,2013-03-07 09:42:00,
2013-03-07 02:57:00,38.2,18.0,29.92,NNE,25,3.0,7.0,45,0.00,,,0.00,weatherlink.com 1.10,2013-03-07 09:57:00,
2013-03-07 03:13:00,37.0,17.0,29.92,NNE,26,6.0,7.0,45,0.00,,,0.00,weatherlink.com 1.10,2013-03-07 10:13:00,
2013-03-07 03:28:00,36.6,17.0,29.92,NNE,32,6.0,9.0,46,0.00,,,0.00,weatherlink.com 1.10,2013-03-07 10:28:00,
2013-03-07 03:43:00,36.6,17.0,29.92,NNE,17,4.0,8.0,45,0.00,,,0.00,weatherlink.com 1.10,2013-03-07 10:43:00,
2013-03-07 03:58:00,35.9,16.0,29.93,NNE,16,7.0,9.0,45,0.00,,,0.00,weatherlink.com 1.10,2013-03-07 10:58:00,
2013-03-07 04:13:00,35.8,17.0,29.93,North,11,4.0,9.0,46,0.00,,,0.00,weatherlink.com 1.10,2013-03-07 11:13:00,
2013-03-07 04:28:00,35.5,16.0,29.94,NNE,23,4.0,5.0,45,0.00,,,0.00,weatherlink.com 1.10,2013-03-07 11:28:00,
2013-03-07 04:43:00,35.2,16.0,29.94,NNE,23,4.0,7.0,46,0.00,,,0.00,weatherlink.com 1.10,2013-03-07 11:43:00,
2013-03-07 04:58:00,37.0,17.0,29.94,North,5,1.0,5.0,44,0.00,,,0.00,weatherlink.com 1.10,2013-03-07 11:58:00,
2013-03-07 05:13:00,37.0,16.0,29.95,North,5,3.0,3.0,43,0.00,,,0.00,weatherlink.com 1.10,2013-03-07 12:13:00,
2013-03-07 05:28:00,34.8,16.0,29.95,NNE,13,3.0,4.0,47,0.00,,,0.00,weatherlink.com 1.10,2013-03-07 12:28:00,
2013-03-07 05:43:00,33.6,16.0,29.95,NE,38,5.0,6.0,49,0.00,,,0.00,weatherlink.com 1.10,2013-03-07 12:43:00,
2013-03-07 05:58:00,32.8,15.0,29.96,NNE,30,6.0,7.0,49,0.00,,,0.00,weatherlink.com 1.10,2013-03-07 12:58:00,
2013-03-07 06:13:00,32.5,16.0,29.97,NE,36,6.0,7.0,50,0.00,,,0.00,weatherlink.com 1.10,2013-03-07 13:13:00,
2013-03-07 06:28:00,31.9,15.0,29.97,NE,37,8.0,10.0,50,0.00,,,0.00,weatherlink.com 1.10,2013-03-07 13:28:00,
2013-03-07 06:43:00,31.7,14.0,29.97,NNE,32,6.0,8.0,49,0.00,,,0.00,weatherlink.com 1.10,2013-03-07 13:43:00,
2013-03-07 06:58:00,32.5,15.0,29.98,NE,54,5.0,11.0,48,0.00,,,0.00,weatherlink.com 1.10,2013-03-07 13:58:00,
2013-03-07 07:13:00,33.9,16.0,29.98,NE,38,7.0,8.0,48,0.00,,,0.00,weatherlink.com 1.10,2013-03-07 14:13:00,
2013-03-07 07:28:00,35.2,16.0,29.99,NNE,16,6.0,9.0,46,0.00,,,0.00,weatherlink.com 1.10,2013-03-07 14:28:00,
2013-03-07 07:43:00,36.8,17.0,30.00,NE,44,4.0,8.0,45,0.00,,,0.00,weatherlink.com 1.10,2013-03-07 14:43:00,
2013-03-07 07:58:00,38.0,17.0,30.00,NE,34,7.0,9.0,42,0.00,,,0.00,weatherlink.com 1.10,2013-03-07 14:58:00,
2013-03-07 08:13:00,39.6,16.0,30.00,NNE,27,7.0,11.0,39,0.00,,,0.00,weatherlink.com 1.10,2013-03-07 15:13:00,
2013-03-07 08:28:00,41.9,17.0,30.00,NNE,28,5.0,11.0,37,0.00,,,0.00,weatherlink.com 1.10,2013-03-07 15:28:00,
2013-03-07 08:43:00,43.5,18.0,30.01,NNE,31,7.0,8.0,36,0.00,,,0.00,weatherlink.com 1.10,2013-03-07 15:43:00,
2013-03-07 08:58:00,46.0,18.0,30.00,NNE,15,8.0,10.0,33,0.00,,,0.00,weatherlink.com 1.10,2013-03-07 15:58:00,
2013-03-07 09:13:00,48.2,20.0,30.00,NNE,17,4.0,9.0,33,0.00,,,0.00,weatherlink.com 1.10,2013-03-07 16:13:00,
2013-03-07 09:28:00,49.4,20.0,30.00,NNE,28,5.0,8.0,32,0.00,,,0.00,weatherlink.com 1.10,2013-03-07 16:28:00,
2013-03-07 09:44:00,51.3,21.0,29.99,East,80,5.0,8.0,31,0.00,,,0.00,weatherlink.com 1.10,2013-03-07 16:44:00,
2013-03-07 09:59:00,52.4,21.0,29.99,NE,38,2.0,8.0,29,0.00,,,0.00,weatherlink.com 1.10,2013-03-07 16:59:00,
2013-03-07 10:14:00,54.1,21.0,29.98,NE,40,2.0,6.0,27,0.00,,,0.00,weatherlink.com 1.10,2013-03-07 17:14:00,
2013-03-07 10:29:00,57.6,21.0,29.98,NE,42,0.0,3.0,24,0.00,,,0.00,weatherlink.com 1.10,2013-03-07 17:29:00,
2013-03-07 10:44:00,59.9,20.0,29.98,ENE,74,3.0,5.0,21,0.00,,,0.00,weatherlink.com 1.10,2013-03-07 17:44:00,
2013-03-07 10:59:00,60.5,19.0,29.97,SSE,159,2.0,7.0,20,0.00,,,0.00,weatherlink.com 1.10,2013-03-07 17:59:00,
2013-03-07 11:14:00,62.6,18.0,29.96,SE,136,1.0,5.0,18,0.00,,,0.00,weatherlink.com 1.10,2013-03-07 18:14:00,
2013-03-07 11:29:00,62.9,21.0,29.95,South,188,3.0,9.0,20,0.00,,,0.00,weatherlink.com 1.10,2013-03-07 18:29:00,
2013-03-07 11:44:00,63.4,22.0,29.95,SW,225,5.0,10.0,20,0.00,,,0.00,weatherlink.com 1.10,2013-03-07 18:44:00,
2013-03-07 11:59:00,63.9,19.0,29.94,SE,126,5.0,15.0,18,0.00,,,0.00,weatherlink.com 1.10,2013-03-07 18:59:00,
2013-03-07 12:14:00,64.5,20.0,29.93,South,172,10.0,13.0,18,0.00,,,0.00,weatherlink.com 1.10,2013-03-07 19:14:00,
2013-03-07 12:29:00,65.1,18.0,29.92,SW,222,6.0,14.0,16,0.00,,,0.00,weatherlink.com 1.10,2013-03-07 19:29:00,
2013-03-07 12:59:00,66.0,15.0,29.90,WSW,241,7.0,10.0,14,0.00,,,0.00,weatherlink.com 1.10,2013-03-07 19:59:00,
2013-03-07 13:14:00,66.0,15.0,29.89,SW,218,13.0,18.0,14,0.00,,,0.00,weatherlink.com 1.10,2013-03-07 20:14:00,
2013-03-07 13:29:00,66.1,14.0,29.88,SW,225,7.0,10.0,13,0.00,,,0.00,weatherlink.com 1.10,2013-03-07 20:29:00,
2013-03-07 13:44:00,66.9,16.0,29.87,WSW,244,4.0,16.0,14,0.00,,,0.00,weatherlink.com 1.10,2013-03-07 20:44:00,
2013-03-07 13:59:00,67.6,15.0,29.86,East,93,5.0,19.0,13,0.00,,,0.00,weatherlink.com 1.10,2013-03-07 20:59:00,
2013-03-07 14:14:00,67.8,17.0,29.85,SW,219,13.0,20.0,14,0.00,,,0.00,weatherlink.com 1.10,2013-03-07 21:14:00,
2013-03-07 14:29:00,67.4,15.0,29.84,WSW,257,9.0,16.0,13,0.00,,,0.00,weatherlink.com 1.10,2013-03-07 21:29:00,
2013-03-07 14:44:00,68.4,16.0,29.84,South,171,5.0,17.0,13,0.00,,,0.00,weatherlink.com 1.10,2013-03-07 21:44:00,
2013-03-07 14:59:00,68.5,16.0,29.84,SW,224,10.0,20.0,13,0.00,,,0.00,weatherlink.com 1.10,2013-03-07 21:59:00,
2013-03-07 15:14:00,69.5,16.0,29.83,South,179,6.0,13.0,13,0.00,,,0.00,weatherlink.com 1.10,2013-03-07 22:14:00,
2013-03-07 15:29:00,69.3,16.0,29.83,SSW,194,8.0,16.0,13,0.00,,,0.00,weatherlink.com 1.10,2013-03-07 22:29:00,
2013-03-07 15:44:00,69.8,17.0,29.82,South,181,8.0,14.0,13,0.00,,,0.00,weatherlink.com 1.10,2013-03-07 22:44:00,
2013-03-07 15:59:00,69.2,18.0,29.82,SSW,194,7.0,12.0,14,0.00,,,0.00,weatherlink.com 1.10,2013-03-07 22:59:00,
2013-03-07 16:15:00,69.1,18.0,29.81,SW,215,7.0,15.0,14,0.00,,,0.00,weatherlink.com 1.10,2013-03-07 23:15:00,
2013-03-07 16:30:00,69.2,18.0,29.81,SSW,202,7.0,15.0,14,0.00,,,0.00,weatherlink.com 1.10,2013-03-07 23:30:00,
2013-03-07 16:45:00,69.6,18.0,29.81,South,190,8.0,10.0,14,0.00,,,0.00,weatherlink.com 1.10,2013-03-07 23:45:00,
2013-03-07 17:00:00,68.9,18.0,29.81,South,179,9.0,15.0,14,0.00,,,0.00,weatherlink.com 1.10,2013-03-08 00:00:00,
2013-03-07 17:15:00,67.9,18.0,29.80,SSW,198,9.0,13.0,15,0.00,,,0.00,weatherlink.com 1.10,2013-03-08 00:15:00,
2013-03-07 17:30:00,67.6,18.0,29.80,SW,214,5.0,7.0,15,0.00,,,0.00,weatherlink.com 1.10,2013-03-08 00:30:00,
2013-03-07 17:45:00,67.4,18.0,29.80,SW,217,0.0,3.0,15,0.00,,,0.00,weatherlink.com 1.10,2013-03-08 00:45:00,
2013-03-07 18:00:00,67.4,18.0,29.80,SW,217,1.0,3.0,15,0.00,,,0.00,weatherlink.com 1.10,2013-03-08 01:00:00,
2013-03-07 18:15:00,66.9,18.0,29.79,SW,217,1.0,3.0,15,0.00,,,0.00,weatherlink.com 1.10,2013-03-08 01:15:00,
2013-03-07 18:30:00,66.4,19.0,29.79,SW,217,0.0,2.0,16,0.00,,,0.00,weatherlink.com 1.10,2013-03-08 01:30:00,
2013-03-07 18:45:00,65.9,18.0,29.80,SW,217,0.0,2.0,16,0.00,,,0.00,weatherlink.com 1.10,2013-03-08 01:45:00,
2013-03-07 19:00:00,63.3,18.0,29.80,SE,126,3.0,3.0,17,0.00,,,0.00,weatherlink.com 1.10,2013-03-08 02:00:00,
2013-03-07 19:15:00,62.0,18.0,29.80,SE,126,2.0,5.0,18,0.00,,,0.00,weatherlink.com 1.10,2013-03-08 02:15:00,
2013-03-07 19:30:00,63.2,20.0,29.80,West,263,7.0,27.0,19,0.00,,,0.00,weatherlink.com 1.10,2013-03-08 02:30:00,
2013-03-07 19:45:00,66.4,19.0,29.81,East,94,5.0,13.0,16,0.00,,,0.00,weatherlink.com 1.10,2013-03-08 02:45:00,
2013-03-07 20:00:00,64.8,19.0,29.81,East,99,3.0,11.0,17,0.00,,,0.00,weatherlink.com 1.10,2013-03-08 03:00:00,
2013-03-07 20:15:00,64.5,17.0,29.81,South,170,1.0,6.0,16,0.00,,,0.00,weatherlink.com 1.10,2013-03-08 03:15:00,
2013-03-07 20:30:00,63.8,17.0,29.81,South,173,2.0,5.0,16,0.00,,,0.00,weatherlink.com 1.10,2013-03-08 03:30:00,
2013-03-07 20:45:00,63.3,16.0,29.81,SSW,213,3.0,6.0,16,0.00,,,0.00,weatherlink.com 1.10,2013-03-08 03:45:00,
2013-03-07 21:00:00,62.8,17.0,29.81,South,184,3.0,11.0,17,0.00,,,0.00,weatherlink.com 1.10,2013-03-08 04:00:00,
2013-03-07 21:15:00,61.8,18.0,29.81,SSW,194,10.0,14.0,18,0.00,,,0.00,weatherlink.com 1.10,2013-03-08 04:15:00,
2013-03-07 21:30:00,61.6,17.0,29.81,South,190,8.0,17.0,18,0.00,,,0.00,weatherlink.com 1.10,2013-03-08 04:30:00,
2013-03-07 21:45:00,60.8,18.0,29.81,South,177,14.0,22.0,19,0.00,,,0.00,weatherlink.com 1.10,2013-03-08 04:45:00,
2013-03-07 22:00:00,59.5,18.0,29.81,SSW,194,8.0,16.0,20,0.00,,,0.00,weatherlink.com 1.10,2013-03-08 05:00:00,
2013-03-07 22:15:00,58.3,18.0,29.81,South,179,13.0,19.0,21,0.00,,,0.00,weatherlink.com 1.10,2013-03-08 05:15:00,
2013-03-07 22:30:00,57.3,19.0,29.82,SSW,196,9.0,15.0,22,0.00,,,0.00,weatherlink.com 1.10,2013-03-08 05:30:00,
2013-03-07 22:45:00,56.6,18.0,29.82,South,180,9.0,15.0,22,0.00,,,0.00,weatherlink.com 1.10,2013-03-08 05:45:00,
2013-03-07 23:00:00,57.1,17.0,29.84,SSW,213,10.0,19.0,21,0.00,,,0.00,weatherlink.com 1.10,2013-03-08 06:00:00,
2013-03-07 23:15:00,56.8,16.0,29.84,SW,222,11.0,19.0,20,0.00,,,0.00,weatherlink.com 1.10,2013-03-08 06:15:00,
2013-03-07 23:30:00,57.5,14.0,29.85,South,190,8.0,11.0,18,0.00,,,0.00,weatherlink.com 1.10,2013-03-08 06:30:00,
2013-03-07 23:45:00,56.4,16.0,29.86,SSW,210,7.0,12.0,20,0.00,,,0.00,weatherlink.com 1.10,2013-03-08 06:45:00,